Hot Springs, VA

11:21 PM EDT on March 22, 2017 (GMT -0400)
Ingalls

Weather History for KHSP - January, 2004

Change the Weather History Date:

Tuesday, January 20, 2004

  Actual Average Record
Temperature  
Mean Temperature 9 °F -  
Max Temperature 15 °F 29 °F 53 °F (2006)
Min Temperature 3 °F 16 °F 0 °F (2008)
Degree Days  
Heating Degree Days 56    
Moisture  
Dew Point 3 °F    
Average Humidity 80    
Maximum Humidity 100    
Minimum Humidity 58    
Precipitation  
Precipitation 0.00 in - - ()
Sea Level Pressure  
Sea Level Pressure 29.88 in    
Wind  
Wind Speed 17 mph (WNW)    
Max Wind Speed 22 mph    
Max Gust Speed 32 mph    
Visibility 10 miles    
Events      
Averages and records for this station are not official NWS values.
T = Trace of Precipitation, MM = Missing Value Source: NWS Daily Summary

Daily Weather History Graph

Daily Weather History Graph

Search for Another Location

Airport or City:

Trip Planner

Search our weather history database for the weather conditions in past years. The results will help you decide how hot, cold, wet, or windy it might be!

Date:

Astronomy

Jan. 20, 2004 Rise Set
Actual Time 7:32 AM EST 5:28 PM EST
Civil Twilight 7:03 AM EST 5:57 PM EST
Nautical Twilight 6:31 AM EST 6:29 PM EST
Astronomical Twilight 6:00 AM EST 7:00 PM EST
Moon 6:45 AM EST (1/20) 4:01 PM EST (1/20)
Length of Visible Light 10h 53m
Length of Day
9h 56m
Waning Crescent, 2% of the Moon is Illuminated
Jan 20
Waning Crescent
Jan 21
New
Jan 29
First Quarter
Feb 6
Full
Feb 13
Last Quarter

Hourly Weather History & Observations

Time (EST) Temp. Windchill Dew Point Humidity Pressure Visibility Wind Dir Wind Speed Gust Speed Precip Events Conditions
12:00 AM 5.0 °F -16.2 °F 3.2 °F 92% 29.80 in 10.0 mi WNW 21.9 mph 29.9 mph N/A   Mostly Cloudy
12:20 AM 5.0 °F -14.2 °F 3.2 °F 92% 29.80 in 10.0 mi WNW 17.3 mph 26.5 mph N/A   Mostly Cloudy
12:40 AM 5.0 °F -14.2 °F 3.2 °F 92% 29.80 in 10.0 mi WNW 17.3 mph 31.1 mph N/A   Overcast
1:00 AM 5.0 °F -15.2 °F 3.2 °F 92% 29.80 in 10.0 mi WNW 19.6 mph 27.6 mph N/A   Overcast
1:20 AM 6.8 °F -13.4 °F 3.2 °F 85% 29.80 in 10.0 mi WNW 20.7 mph 28.8 mph N/A   Overcast
1:40 AM 6.8 °F -11.3 °F 3.2 °F 85% 29.80 in 10.0 mi WNW 16.1 mph 25.3 mph N/A   Overcast
2:00 AM 6.8 °F -11.8 °F 3.2 °F 85% 29.81 in 10.0 mi WNW 17.3 mph 26.5 mph N/A   Overcast
2:20 AM 6.8 °F -11.3 °F 5.0 °F 92% 29.81 in 10.0 mi West 16.1 mph 21.9 mph N/A   Overcast
2:40 AM 6.8 °F -12.4 °F 3.2 °F 85% 29.81 in 10.0 mi WNW 18.4 mph 26.5 mph N/A   Overcast
3:00 AM 6.8 °F -11.8 °F 3.2 °F 85% 29.81 in 10.0 mi WNW 17.3 mph 26.5 mph N/A   Mostly Cloudy
3:20 AM 5.0 °F -14.2 °F 3.2 °F 92% 29.81 in 10.0 mi WNW 17.3 mph 26.5 mph N/A   Overcast
3:40 AM 5.0 °F -14.7 °F 3.2 °F 92% 29.82 in 10.0 mi West 18.4 mph 23.0 mph N/A   Overcast
4:00 AM 5.0 °F -13.6 °F 3.2 °F 92% 29.82 in 10.0 mi WNW 16.1 mph 27.6 mph N/A   Overcast
4:20 AM 5.0 °F -13.6 °F 3.2 °F 92% 29.82 in 10.0 mi WNW 16.1 mph 27.6 mph N/A   Overcast
4:40 AM 5.0 °F -14.2 °F 3.2 °F 92% 29.82 in 10.0 mi WNW 17.3 mph 31.1 mph N/A   Overcast
5:00 AM 5.0 °F -13.6 °F 3.2 °F 92% 29.82 in 10.0 mi WNW 16.1 mph 24.2 mph N/A   Mostly Cloudy
5:20 AM 5.0 °F -15.2 °F 3.2 °F 92% 29.81 in 10.0 mi WNW 19.6 mph 26.5 mph N/A   Scattered Clouds
5:40 AM 3.2 °F -15.9 °F 1.4 °F 92% 29.83 in 10.0 mi WNW 16.1 mph 32.2 mph N/A   Scattered Clouds
6:00 AM 3.2 °F -18.1 °F 1.4 °F 92% 29.84 in 10.0 mi West 20.7 mph 28.8 mph N/A   Mostly Cloudy
6:20 AM 3.2 °F -17.6 °F 1.4 °F 92% 29.84 in 10.0 mi WNW 19.6 mph 27.6 mph N/A   Mostly Cloudy
6:40 AM 3.2 °F -17.1 °F 1.4 °F 92% 29.84 in 10.0 mi WNW 18.4 mph 26.5 mph N/A   Mostly Cloudy
7:00 AM 3.2 °F -15.9 °F 1.4 °F 92% 29.85 in 10.0 mi WNW 16.1 mph 25.3 mph N/A   Scattered Clouds
7:20 AM 3.2 °F -17.1 °F 1.4 °F 92% 29.85 in 10.0 mi West 18.4 mph 24.2 mph N/A   Clear
7:40 AM 3.2 °F -16.5 °F 3.2 °F 100% 29.86 in 10.0 mi West 17.3 mph 24.2 mph N/A   Scattered Clouds
8:00 AM 3.2 °F -15.9 °F 3.2 °F 100% 29.87 in 10.0 mi WNW 16.1 mph 21.9 mph N/A   Scattered Clouds
8:20 AM 3.2 °F -17.6 °F 3.2 °F 100% 29.88 in 10.0 mi WNW 19.6 mph 25.3 mph N/A   Scattered Clouds
8:40 AM 6.8 °F -10.7 °F 5.0 °F 92% 29.88 in 10.0 mi WNW 15.0 mph 23.0 mph N/A   Scattered Clouds
9:00 AM 6.8 °F -10.7 °F 3.2 °F 85% 29.89 in 10.0 mi WNW 15.0 mph 20.7 mph N/A   Scattered Clouds
9:20 AM 6.8 °F -12.4 °F 3.2 °F 85% 29.89 in 10.0 mi WNW 18.4 mph 25.3 mph N/A   Scattered Clouds
9:40 AM 8.6 °F -11.0 °F 3.2 °F 79% 29.89 in 10.0 mi WNW 20.7 mph 27.6 mph N/A   Scattered Clouds
10:00 AM 8.6 °F -10.0 °F 3.2 °F 79% 29.91 in 10.0 mi WNW 18.4 mph 29.9 mph N/A   Clear
10:20 AM 8.6 °F -10.0 °F 5.0 °F 85% 29.92 in 10.0 mi WNW 18.4 mph 25.3 mph N/A   Clear
10:40 AM 10.4 °F -8.2 °F 3.2 °F 73% 29.92 in 10.0 mi West 19.6 mph 24.2 mph N/A   Clear
11:00 AM 10.4 °F -7.7 °F 3.2 °F 73% 29.92 in 10.0 mi West 18.4 mph 25.3 mph N/A   Clear
11:20 AM 12.2 °F -5.3 °F 5.0 °F 73% 29.92 in 10.0 mi West 18.4 mph 23.0 mph N/A   Clear
11:40 AM 12.2 °F -4.3 °F 3.2 °F 67% 29.92 in 10.0 mi West 16.1 mph 24.2 mph N/A   Clear
12:00 PM 12.2 °F -2.5 °F 3.2 °F 67% 29.92 in 10.0 mi WNW 12.7 mph 20.7 mph N/A   Unknown
12:20 PM 15.8 °F 1.4 °F 3.2 °F 58% 29.92 in 10.0 mi WNW 13.8 mph 21.9 mph N/A   Unknown
12:40 PM 15.8 °F 2.1 °F 3.2 °F 58% 29.92 in 10.0 mi WNW 12.7 mph 23.0 mph N/A   Unknown
1:00 PM 15.8 °F -0.6 °F 3.2 °F 58% 29.92 in 10.0 mi West 18.4 mph 24.2 mph N/A   Clear
1:20 PM 15.8 °F 2.7 °F 6.8 °F 68% 29.92 in 10.0 mi WNW 11.5 mph 20.7 mph N/A   Clear
1:40 PM 15.8 °F 0.3 °F 3.2 °F 58% 29.92 in 10.0 mi West 16.1 mph 20.7 mph N/A   Clear
2:00 PM 15.8 °F 0.9 °F 5.0 °F 62% 29.92 in 10.0 mi WNW 15.0 mph 24.2 mph N/A   Clear
2:20 PM 15.8 °F 0.3 °F 6.8 °F 68% 29.92 in 10.0 mi West 16.1 mph 23.0 mph N/A   Clear
2:40 PM 15.8 °F -0.6 °F 5.0 °F 62% 29.92 in 10.0 mi WNW 18.4 mph 24.2 mph N/A   Clear
3:00 PM 15.8 °F 0.9 °F 5.0 °F 62% 29.93 in 10.0 mi WNW 15.0 mph 25.3 mph N/A   Clear
3:20 PM 15.8 °F 0.9 °F 3.2 °F 58% 29.93 in 10.0 mi WNW 15.0 mph 18.4 mph N/A   Clear
3:40 PM 15.8 °F 0.9 °F 6.8 °F 68% 29.94 in 10.0 mi WNW 15.0 mph 21.9 mph N/A   Clear
4:00 PM 15.8 °F 0.3 °F 3.2 °F 58% 29.94 in 10.0 mi WNW 16.1 mph 21.9 mph N/A   Clear
4:20 PM 15.8 °F 1.4 °F 3.2 °F 58% 29.95 in 10.0 mi WNW 13.8 mph 23.0 mph N/A   Clear
4:40 PM 15.8 °F 2.1 °F 5.0 °F 62% 29.95 in 10.0 mi WNW 12.7 mph 18.4 mph N/A   Clear
5:00 PM 12.2 °F -3.7 °F 3.2 °F 67% 29.95 in 10.0 mi West 15.0 mph - N/A   Clear
5:20 PM 12.2 °F -1.8 °F 3.2 °F 67% 29.95 in 10.0 mi NW 11.5 mph 18.4 mph N/A   Clear
5:40 PM 10.4 °F -4.8 °F 3.2 °F 73% 29.96 in 10.0 mi WNW 12.7 mph 17.3 mph N/A   Clear
6:00 PM 10.4 °F -3.3 °F 3.2 °F 73% 29.96 in 10.0 mi NW 10.4 mph 16.1 mph N/A   Clear
6:20 PM 8.6 °F -6.3 °F 3.2 °F 79% 29.96 in 10.0 mi WNW 11.5 mph 16.1 mph N/A   Clear
6:40 PM 8.6 °F -6.3 °F 3.2 °F 79% 29.96 in 10.0 mi WNW 11.5 mph 17.3 mph N/A   Clear
7:00 PM 8.6 °F -5.5 °F 3.2 °F 79% 29.97 in 10.0 mi WNW 10.4 mph 18.4 mph N/A   Clear
7:20 PM 8.6 °F -8.3 °F 3.2 °F 79% 29.97 in 10.0 mi WNW 15.0 mph 19.6 mph N/A   Clear
7:40 PM 6.8 °F -9.3 °F 3.2 °F 85% 29.96 in 10.0 mi WNW 12.7 mph 24.2 mph N/A   Clear
8:00 PM 6.8 °F -5.9 °F 3.2 °F 85% 29.96 in 10.0 mi NW 8.1 mph - N/A   Clear
8:20 PM 6.8 °F -7.8 °F 3.2 °F 85% 29.97 in 10.0 mi WNW 10.4 mph 16.1 mph N/A   Clear
8:40 PM 6.8 °F -6.9 °F 5.0 °F 92% 29.97 in 10.0 mi WNW 9.2 mph - N/A   Clear
9:00 PM 6.8 °F -7.8 °F 3.2 °F 85% 29.98 in 10.0 mi WNW 10.4 mph - N/A   Clear
9:20 PM 6.8 °F -5.9 °F 3.2 °F 85% 29.98 in 10.0 mi WNW 8.1 mph - N/A   Clear
9:40 PM 6.8 °F -6.9 °F 5.0 °F 92% 29.98 in 10.0 mi WNW 9.2 mph 16.1 mph N/A   Clear
10:00 PM 6.8 °F -3.5 °F 3.2 °F 85% 29.98 in 10.0 mi West 5.8 mph - N/A   Clear
10:20 PM 6.8 °F -7.8 °F 5.0 °F 92% 29.99 in 10.0 mi West 10.4 mph - N/A   Scattered Clouds
10:40 PM 6.8 °F -6.9 °F 3.2 °F 85% 29.99 in 10.0 mi WNW 9.2 mph - N/A   Scattered Clouds
11:00 PM 6.8 °F -8.6 °F 5.0 °F 92% 29.99 in 10.0 mi West 11.5 mph - N/A   Clear
11:20 PM 6.8 °F -8.6 °F 3.2 °F 85% 29.99 in 10.0 mi West 11.5 mph - N/A   Clear
11:40 PM 6.8 °F -8.6 °F 6.8 °F 100% 29.99 in 10.0 mi West 11.5 mph - N/A   Clear